Easton, MD

2:10 AM EDT on May 25, 2018 (GMT -0400)
Easton / Newnam

Weather History for KESN - January, 2014

Change the Weather History Date:

Wednesday, January 22, 2014

  Actual Average Record
Temperature  
Mean Temperature 14 °F -  
Max Temperature 17 °F 45 °F 64 °F (2018)
Min Temperature 10 °F 26 °F 8 °F (1970)
Degree Days  
Heating Degree Days 52    
Moisture  
Dew Point 3 °F    
Average Humidity 60    
Maximum Humidity 86    
Minimum Humidity 45    
Precipitation  
Precipitation 0.00 in - - ()
Sea Level Pressure  
Sea Level Pressure 29.95 in    
Wind  
Wind Speed 15 mph (NNW)    
Max Wind Speed 21 mph    
Max Gust Speed 29 mph    
Visibility 9 miles    
Events Snow    
Averages and records for this station are not official NWS values.
T = Trace of Precipitation, MM = Missing Value Source: NWS Daily Summary

Daily Weather History Graph

Daily Weather History Graph

Search for Another Location

Airport or City:

Astronomy

Jan. 22, 2014 Rise Set
Actual Time 7:17 AM EST 5:14 PM EST
Civil Twilight 6:49 AM EST 5:43 PM EST
Nautical Twilight 6:16 AM EST 6:15 PM EST
Astronomical Twilight 5:45 AM EST 6:47 PM EST
Moon 11:40 PM EST (1/22) 10:21 AM EST (1/22)
Length of Visible Light 10h 54m
Length of Day
9h 56m
Waning Gibbous, 65% of the Moon is Illuminated
Jan 22
Waning Gibbous
Jan 24
Last Quarter
Jan 30
New
Feb 6
First Quarter
Feb 14
Full

Hourly Weather History & Observations

Time (EST) Temp. Windchill Dew Point Humidity Pressure Visibility Wind Dir Wind Speed Gust Speed Precip Events Conditions
12:15 AM 17.2 °F 2.7 °F 13.8 °F 86% 29.87 in 2.5 mi North 15.0 mph 23.0 mph N/A Snow Light Snow
12:35 AM 16.7 °F 1.5 °F 13.1 °F 86% 29.87 in 2.5 mi North 16.1 mph 24.2 mph N/A Snow Light Snow
12:55 AM 16.3 °F 2.1 °F 12.0 °F 83% 29.88 in 3.0 mi North 13.8 mph 24.2 mph N/A Snow Light Snow
1:15 AM 16.3 °F 2.7 °F 11.1 °F 80% 29.88 in 7.0 mi NNE 12.7 mph 18.4 mph N/A Snow Light Snow
1:35 AM 17.1 °F 3.0 °F 9.5 °F 72% 29.87 in 10.0 mi North 13.8 mph 19.6 mph N/A   Scattered Clouds
1:55 AM 16.7 °F 2.0 °F 3.6 °F 56% 29.88 in 10.0 mi North 15.0 mph 26.5 mph N/A   Clear
2:15 AM 16.5 °F 4.3 °F 3.4 °F 56% 29.88 in 10.0 mi North 10.4 mph - N/A   Clear
2:35 AM 16.7 °F 1.0 °F 3.6 °F 56% 29.88 in 10.0 mi North 17.3 mph 24.2 mph N/A   Clear
2:54 AM 16.3 °F 0.5 °F 3.2 °F 56% 29.88 in 10.0 mi North 17.3 mph 23.0 mph N/A   Clear
3:15 AM 15.6 °F -0.4 °F 3.7 °F 59% 29.89 in 10.0 mi North 17.3 mph 27.6 mph N/A   Clear
3:35 AM 14.2 °F -3.6 °F 1.0 °F 56% 29.90 in 10.0 mi North 20.7 mph 28.8 mph N/A   Clear
3:55 AM 13.5 °F 0.5 °F 1.6 °F 59% 29.90 in 10.0 mi North 10.4 mph 16.1 mph N/A   Clear
4:15 AM 12.6 °F -3.8 °F 1.2 °F 61% 29.91 in 10.0 mi North 16.1 mph 26.5 mph N/A   Clear
4:35 AM 12.0 °F -5.6 °F 0.5 °F 60% 29.91 in 10.0 mi North 18.4 mph 25.3 mph N/A   Clear
4:55 AM 11.1 °F -4.5 °F 0.5 °F 62% 29.92 in 10.0 mi North 13.8 mph 25.3 mph N/A   Clear
5:15 AM 10.8 °F -5.6 °F -0.0 °F 62% 29.93 in 10.0 mi North 15.0 mph 24.2 mph N/A   Clear
5:22 AM 10.4 °F -6.6 °F -0.0 °F 63% 29.93 in 10.0 mi North 16.1 mph 21.9 mph N/A   Clear
5:53 AM 10.4 °F -5.4 °F -0.4 °F 62% 29.93 in 10.0 mi NNW 13.8 mph 23.0 mph N/A   Clear
6:53 AM 10.4 °F -5.4 °F -0.4 °F 62% 29.93 in 10.0 mi NNW 13.8 mph 23.0 mph N/A   Clear
7:53 AM 10.4 °F -7.2 °F -0.4 °F 62% 29.95 in 10.0 mi North 17.3 mph 27.6 mph N/A   Clear
9:53 AM 12.2 °F -4.8 °F -0.4 °F 57% 30.00 in 10.0 mi North 17.3 mph 27.6 mph N/A   Clear
10:53 AM 12.2 °F -4.8 °F -0.4 °F 57% 30.02 in 10.0 mi North 17.3 mph 25.3 mph N/A   Partly Cloudy
11:53 AM 15.8 °F 0.9 °F 1.4 °F 53% 30.00 in 10.0 mi North 15.0 mph 21.9 mph N/A   Partly Cloudy
1:53 PM 17.6 °F 2.2 °F 1.4 °F 49% 29.99 in 10.0 mi NW 17.3 mph 23.0 mph N/A   Scattered Clouds
2:53 PM 17.6 °F 3.2 °F 3.2 °F 53% 29.99 in 10.0 mi NW 15.0 mph 20.7 mph N/A   Scattered Clouds
3:53 PM 17.6 °F 3.7 °F 1.4 °F 49% 30.01 in 10.0 mi NW 13.8 mph 20.7 mph N/A   Clear
4:54 PM 17.6 °F 7.3 °F -0.4 °F 45% 30.03 in 10.0 mi NW 8.1 mph 17.3 mph N/A   Clear
5:50 PM 14.0 °F 2.0 °F -0.4 °F 53% 30.06 in 10.0 mi NW 9.2 mph - N/A   Clear
6:50 PM 15.8 °F 2.7 °F -0.4 °F 49% 30.08 in 10.0 mi NW 11.5 mph 20.7 mph N/A   Clear
7:50 PM 15.8 °F 4.2 °F -0.4 °F 49% 30.09 in 10.0 mi NW 9.2 mph - N/A   Clear
8:53 PM 15.8 °F 3.4 °F -0.4 °F 49% 30.10 in 10.0 mi NW 10.4 mph - N/A   Clear
11:12 PM 17.4 °F 7.1 °F 3.6 °F 55% 30.12 in 10.0 mi NNW 8.1 mph - N/A   Clear